Regional Weather Roundup
Issued by NWS Boston, MA

Current Version | Previous Version | Text Only | Print | Product List | Glossary Off
Versions: 1 2 3 4 5 6 7 8 9 10 11 12 13 14 15 16 17 18 19 20 21 22 23 24 25 26 27 28 29 30 31 32 33 34 35 36 37 38 39 40 41 42 43 44 45 46 47 48
000 ASUS41 KBOX 211610 RWRBOX REGIONAL WEATHER ROUNDUP NATIONAL WEATHER SERVICE TAUNTON MA 1100 AM EST FRI NOV 21 2014 NOTE: "FAIR" INDICATES FEW OR NO CLOUDS BELOW 12,000 FEET WITH NO SIGNIFICANT WEATHER AND/OR OBSTRUCTIONS TO VISIBILITY. THE FOLLOWING OBSERVATION LOCATIONS DO NOT REPORT PRESENT WEATHER...PROVINCETOWN... SMITHFIELD...BLOCK ISLAND...KEENE...AND OXFORD. MAZALL-211700- EASTERN MASSACHUSETTS CITY SKY/WX TMP DP RH WIND PRES REMARKS BOSTON MOSUNNY 34 10 37 NW18G28 30.11R WCI 23 BEVERLY SUNNY 33 9 36 NW17G33 30.08R WCI 22 LAWRENCE MOSUNNY 32 9 38 NW14G26 30.11R WCI 22 BEDFORD SUNNY 32 9 38 W20G31 30.10S WCI 20 BLUE HILL N/A 30 9 41 W22G33 30.06S WCI 17 NORWOOD SUNNY 34 9 35 NW16G30 30.12R WCI 24 MARSHFIELD SUNNY N/A N/A N/A W10G20 30.11F PLYMOUTH SUNNY 33 10 38 W18G25 30.10S WCI 22 TAUNTON SUNNY 34 9 35 NW10G21 30.13R WCI 26 NEW BEDFORD SUNNY 34 10 37 W13G21 30.12R WCI 25 $$ MAZALL-211700- CAPE COD AND THE ISLANDS CITY SKY/WX TMP DP RH WIND PRES REMARKS FALMOUTH SUNNY 34 9 35 NW16G25 30.11S WCI 23 HYANNIS SUNNY 35 9 33 NW14G29 30.08S WCI 26 CHATHAM SUNNY 33 14 45 NW8G23 30.09S WCI 26 PROVINCETOWN MOSUNNY 36 14 41 NW20G32 30.09S WCI 25 NANTUCKET SUNNY 35 11 36 NW23G30 30.11R WCI 23 MARTHAS VNYRD SUNNY 34 10 37 NW15G26 30.12R WCI 24 $$ MAZALL-211700- CENTRAL AND WESTERN MASSACHUSETTS CITY SKY/WX TMP DP RH WIND PRES REMARKS WORCESTER SUNNY 28 8 43 W29G37 30.08S WCI 12 FITCHBURG SUNNY 33 10 38 W16G24 30.12R WCI 23 ORANGE MOSUNNY 29 9 43 NW17G25 30.13R WCI 17 SPRINGFIELD PTSUNNY 31 10 40 NW17G29 30.17R WCI 20 WESTFIELD MOSUNNY 33 10 38 NW22G32 30.18R WCI 21 NORTH ADAMS PTSUNNY 27 12 53 W16G23 30.17R WCI 15 PITTSFIELD FLURRIES 24 13 62 W24G33 30.12R WCI 8 $$ RIZALL-211700- RHODE ISLAND CITY SKY/WX TMP DP RH WIND PRES REMARKS PROVIDENCE MOSUNNY 33 8 35 NW16G24 30.15S WCI 23 NEWPORT SUNNY 34 9 35 NW16G26 30.13S WCI 24 BLOCK ISLAND SUNNY 34 10 37 NW14G26 30.16S WCI 24 SMITHFIELD SUNNY 34 7 32 NW16 30.11S WCI 23 WESTERLY SUNNY 33 8 35 W10G20 30.18R WCI 25 $$ CTZALL-211700- CONNECTICUT CITY SKY/WX TMP DP RH WIND PRES REMARKS BRADLEY INTL PTSUNNY 34 10 37 NW15G28 30.18S WCI 24 HARTFORD MOSUNNY 31 10 41 NW17G25 30.21R WCI 19 BRIDGEPORT SUNNY 34 10 37 NW18G24 30.23R WCI 23 DANBURY SUNNY 31 8 38 NW13G18 30.24R WCI 21 GROTON SUNNY 32 10 40 NW16G29 30.19R WCI 21 NEW HAVEN MOSUNNY 36 12 37 NW13G18 30.22S WCI 27 CHESTER FAIR 32 9 37 NW14G22 30.18S WCI 22 MERIDEN SUNNY 33 9 36 NW10G22 30.22R WCI 25 WILLIMANTIC SUNNY 32 10 40 NW14G25 30.18R WCI 22 OXFORD MOSUNNY 28 7 40 N14G21 30.20R WCI 17 $$ MEZ002-015-021-024-NHZ003-005-008-011-012-014-VTZ005-008-211700- NORTHERN NEW ENGLAND CITY SKY/WX TMP DP RH WIND PRES REMARKS PORTLAND ME MOSUNNY 34 9 35 NW20 30.03R WCI 23 BANGOR ME PTSUNNY 30 11 45 NW15G23 29.93R WCI 19 CONCORD NH CLOUDY 29 9 43 NW20G28 30.09R WCI 16 MANCHESTER NH PTSUNNY 32 8 36 NW14G26 30.09R WCI 22 NASHUA NH MOSUNNY 33 9 37 W15G22 30.11R WCI 23 PORTSMOUTH NH MOSUNNY 34 8 34 NW15G28 30.07R WCI 24 JAFFREY NH MOSUNNY 26 8 46 W13G20 30.08R WCI 15 KEENE NH PTSUNNY 28 10 47 NW7G18 30.13R WCI 21 BURLINGTON VT MOSUNNY 28 10 46 NW20G25 30.18R WCI 15 MT. WASHINGTON SNOW -2 -2 100 NW59G66 N/A VSB 0 WCI -36 $$ NYZ052-076-211700- EASTERN NEW YORK CITY SKY/WX TMP DP RH WIND PRES REMARKS ALBANY PTSUNNY 27 16 63 W15 30.24R WCI 15 NEW YORK CITY MOSUNNY 33 13 43 NW20G32 30.29R WCI 21 $$ ANZALL-211700- MARINE OBSERVATIONS STATION/POSITION TIME TEMP WIND PRES VSBY WAVE AIR SEA DIR/SP/G HT/PER (UTC) (F) (DEG/KT/KT) (MB) (MI) (FT/S) BOSTON BUOY 1550 33 50 300/ 21/ 31 1018.5R 4/ 4 BUZZARDS BAY 1500 300/ 24/ 26 1020.9R NANTUCKET SOUND 1550 33 47 300/ 19/ 23 1019.0R 3/ 5 MASS BAY-STELLWA 1504 32 50 290/ 19/ 25 N/A 1 1/2 3/ 4 ISLE OF SHOALS 1600 31 300/ 24/ 29 1017.0R S OF BLOCK IS 1508 56 N/A 7/ 6 $$ ......................KEY......................... SKY/WX - SKY CONDITION/PRESENT WEATHER TMP - TEMPERATURE IN FAHRENHEIT DWPT - DEWPOINT IN FAHRENHEIT RH - RELATIVE HUMIDITY IN PERCENT WIND - DIRECTION AND SPEED IN MPH PRES - MEAN SEA LEVEL PRESSURE IN INCHES OF HG WCI - WIND CHILL INDEX VSB - VISIBILITY IN MILES HX - HEAT INDEX TC - TEMPERATURE IN CELSIUS VRB - VARIABLE WIND DIRECTION N/A - NOT AVAILABLE

USA.gov is the U.S. government's official web portal to all federal, state and local government web resources and services.